Showing default

YAOGAN-50, 67433

Orbit data source: Space-Track

YAOGAN-50, 67433 is a payload satellite owned by Zhongguo Xingwang (CN) in LEO that was launched on Tue, 13 Jan 2026 UTC via a CHANG ZHENG 6A launch vehicle from the Taiyaun Space Center, China (TSC). Payload-class satellites include a variety of spacecraft equipped with specific instruments for various scientific and technological missions. These include communications satellites like Starlink; space stations such as the ISS; scientific satellites like the Hubble; Earth observation satellites from companies like Planet Labs, Umbra, and HawkEye 360; GPS; miniature CubeSats for education and research; and military/defense satellites.

Loading next visibility...
Identifier
67433, 2026-006A
Orbit
LEO
Country
Flag of CNCN / PRC
Related business
Manufacturer
SAST
Mission
Operational Defense Radar Imaging
Bus & Motor
YG50, Unknown motor
Mass
~1,500 kg wet, ~1,500 kg dry
Launch date (UTC)
2026-01-13 (5 months ago)
Launch vehicle
CHANG ZHENG 6A
Launch site
Taiyaun Space Center, China (TSC)
Object type
Payload
Rocket body
Debris
Shape & HBR
Box + 2 Pan, 3.2 m
Radar Cross Section
14.304 m², Large (>1 m²)

Expand to show TLE details & history
Last TLE update: 12 hours ago

TLE from 12 hours ago
0 YAOGAN-50
1 67433U 26006A   26171.36700001  .00000330  00000-0  12791-3 0  9990
2 67433 142.0358 231.1277 0001003 267.5008  92.5596 13.83250911 21870
Epoch: 2026-06-20T08:48Z
TLE epoch observation values (Epoch: 2026-06-20T08:48:28.800Z)
Latitude
-0.00004°
Longitude
-169.5749°
Altitude
951.682 km
Speed
7.378 km/s
True Right ascension
15h 24m 30s
True Declination
0° 00' 00"
Sunlit
Object was in full shadow at epoch
Visualization orbit readout
Latitude
Unknown
Longitude
Unknown
Altitude
Unknown
Speed
Unknown
Apparent Right ascension
Unknown
Apparent Declination
Unknown
Sunlit
N/A
Visualization observer readout
Local Sidereal Time
07:18:48
Azimuth
Unknown
Elevation
Unknown
Doppler factor
Unknown
Orbital elements
Apogee altitude
955.717 km
Perigee altitude
954.246 km
Semi-major axis
7,333.118 km
Eccentricity
0.0001
Inclination
142.0358°
RAAN
231.1277°
Arg. of periapsis
267.5008°
True anomaly
92.57108°
Mean anomaly
92.5596°
Eccentric anomaly
92.56534°
Mean motion
3.45629 °/min
Orbital period
104.16 mins
BSTAR
0.00012791
Loading maneuver chart data...
Computing Atmospheric mass density...
Loading historical data...
Loading historical data...
Loading historical data...
Loading historical data...
Loading historical data...
Loading historical data...
Loading historical data...
Other satellites on launch #6 in the year 2026 (2026-01-13 UTC)

Documentation

Showing up to 5 results
|